User: anonymous   Login
Location: *
(31.2983°S, 151.4094°E)
Time: 14:20:31
(UTC+00:00)
Language:

Cosmos 1603 - Orbit

View from above orbital plane
View from above orbital plane
View from above satellite
View from above satellite

Ground track
Ground track

The orbit data is extracted from the following two-line orbital elements,

1 15333U 84106A   19292.02446242  .00000282  00000-0  17291-3 0  9996
2 15333  71.0238 104.3933 0020108 341.7347  18.3050 14.14089955808965
Epoch (UTC): 19 October 2019 00:35:13
Eccentricity: 0.0020108
inclination: 71.0238°
perigee height: 831 km
apogee height: 860 km
right ascension of ascending node: 104.3933°
argument of perigee: 341.7347°
revolutions per day: 14.14089955
mean anomaly at epoch: 18.3050°
orbit number at epoch: 80896

The dashed part of the orbit path shows where the satellite is in the earth's shadow,  

DLR